Weather History for Hartford, CT

Change the Weather History Date:

Saturday, March 16, 2013

  Actual Average Record
Temperature  
Mean Temperature 34 °F -  
Max Temperature 39 °F 45 °F 74 °F (1990)
Min Temperature 30 °F 25 °F 11 °F (1980)
Degree Days  
Heating Degree Days 32    
Moisture  
Dew Point 16 °F    
Average Humidity 48    
Maximum Humidity 72    
Minimum Humidity 31    
Precipitation  
Precipitation 0.00 in - - ()
Sea Level Pressure  
Sea Level Pressure 29.83 in    
Wind  
Wind Speed 7 mph (NW)    
Max Wind Speed 12 mph    
Max Gust Speed 22 mph    
Visibility 10 miles    
Events      
Averages and records for this station are not official NWS values.
T = Trace of Precipitation, MM = Missing Value Source: NWS Daily Summary

Daily Weather History Graph

Daily Weather History Graph

Search for Another Location

Airport:

Trip Planner

Search our weather history database for the weather conditions in past years. The results will help you decide how hot, cold, wet, or windy it might be!

Date:

Astronomy

Mar. 16, 2013 Rise Set
Actual Time 7:00 AM EDT 6:58 PM EDT
Civil Twilight 6:32 AM EDT 7:26 PM EDT
Nautical Twilight 6:00 AM EDT 7:58 PM EDT
Astronomical Twilight 5:27 AM EDT 8:31 PM EDT
Moon 9:23 AM EDT (3/16) No Moon Set
Length of Visible Light 12h 53m
Length of Day
11h 58m
Waxing Crescent, 23% of the Moon is Illuminated
Mar 16
Waxing Crescent
Mar 19
First Quarter
Mar 27
Full
Apr 3
Last Quarter
Apr 10
New

Hourly Weather History & Observations

Time (EDT) Temp. Windchill Dew Point Humidity Pressure Visibility Wind Dir Wind Speed Gust Speed Precip Events Conditions
12:53 AM 37.0 °F 30.4 °F 25.0 °F 62% 29.76 in 10.0 mi WNW 9.2 mph 20.7 mph 0.00 in   Overcast
1:53 AM 36.0 °F 28.5 °F 21.0 °F 55% 29.77 in 10.0 mi NNW 10.4 mph 21.9 mph N/A   Scattered Clouds
2:53 AM 35.1 °F 26.9 °F 17.1 °F 48% 29.78 in 10.0 mi NW 11.5 mph 18.4 mph N/A   Clear
3:53 AM 34.0 °F 27.2 °F 17.1 °F 50% 29.80 in 10.0 mi NW 8.1 mph - N/A   Clear
4:53 AM 33.1 °F 25.5 °F 19.9 °F 59% 29.82 in 10.0 mi NNW 9.2 mph - N/A   Overcast
5:53 AM 30.9 °F 22.8 °F 18.0 °F 59% 29.83 in 10.0 mi North 9.2 mph - N/A   Partly Cloudy
6:53 AM 30.9 °F 26.2 °F 16.0 °F 54% 29.86 in 10.0 mi NW 4.6 mph - N/A   Clear
7:53 AM 30.9 °F 26.2 °F 12.9 °F 47% 29.87 in 10.0 mi NW 4.6 mph - N/A   Clear
8:53 AM 33.1 °F 26.9 °F 12.0 °F 42% 29.88 in 10.0 mi NW 6.9 mph - N/A   Partly Cloudy
9:53 AM 33.1 °F 27.7 °F 10.9 °F 40% 29.88 in 10.0 mi NW 5.8 mph - N/A   Overcast
10:53 AM 34.0 °F 29.8 °F 12.0 °F 40% 29.86 in 10.0 mi Variable 4.6 mph - N/A   Overcast
11:53 AM 35.1 °F 32.2 °F 10.0 °F 35% 29.84 in 10.0 mi Variable 3.5 mph - N/A   Mostly Cloudy
12:53 PM 36.0 °F 31.1 °F 10.0 °F 34% 29.83 in 10.0 mi ENE 5.8 mph - N/A   Clear
1:53 PM 37.0 °F - 10.0 °F 33% 29.82 in 10.0 mi Calm Calm - N/A   Overcast
2:53 PM 37.0 °F 34.5 °F 9.0 °F 31% 29.81 in 10.0 mi SE 3.5 mph - N/A   Overcast
3:53 PM 37.9 °F 32.1 °F 14.0 °F 38% 29.79 in 10.0 mi NNW 8.1 mph - N/A   Mostly Cloudy
4:53 PM 37.9 °F 34.4 °F 14.0 °F 38% 29.78 in 10.0 mi NNE 4.6 mph - N/A   Mostly Cloudy
5:53 PM 37.9 °F - 15.1 °F 39% 29.78 in 10.0 mi Calm Calm - N/A   Overcast
6:53 PM 37.9 °F - 16.0 °F 41% 29.80 in 10.0 mi Calm Calm - N/A   Overcast
7:53 PM 36.0 °F 33.3 °F 27.0 °F 70% 29.82 in 10.0 mi SW 3.5 mph - N/A   Overcast
8:53 PM 35.1 °F 31.0 °F 27.0 °F 72% 29.83 in 10.0 mi SSW 4.6 mph - N/A   Overcast
9:53 PM 35.1 °F 32.2 °F 27.0 °F 72% 29.86 in 10.0 mi SSW 3.5 mph - N/A   Overcast
10:53 PM 36.0 °F 32.1 °F 19.9 °F 52% 29.88 in 10.0 mi WNW 4.6 mph - N/A   Overcast
11:53 PM 35.1 °F 30.1 °F 15.1 °F 44% 29.90 in 10.0 mi NNW 5.8 mph - N/A   Overcast